Location: Lane
(33.5226°N, 79.8788°W)
Time: 16:35:01
(UTC+00:00)

A-11 Canister half - All Passes

Search period start: 26 September 2022 00:00
Search period end: 06 October 2022 00:00
Orbit: 1524 x 1684 km, 47.3° (Epoch: 25 September)

Date Brightness Start Highest point End Pass type
(mag) Time Alt. Az. Time Alt. Az. Time Alt. Az.
26 Sep - 00:06:21 10° W 00:15:03 40° NNW 00:24:01 10° NE visible
26 Sep - 02:13:34 10° NW 02:22:20 38° N 02:31:21 10° ENE visible
26 Sep - 04:19:00 10° NW 04:28:45 74° NNE 04:38:47 10° ESE visible
26 Sep - 06:24:40 10° WNW 06:33:25 38° SW 06:42:23 10° SSE night (unlit)
26 Sep - 19:36:06 10° S 19:43:14 25° SE 19:50:25 10° ENE daylight
26 Sep - 21:38:01 10° SW 21:47:19 89° NW 21:56:51 10° NE daylight
26 Sep - 23:44:33 10° W 23:53:16 41° NNW 00:02:15 10° NE visible
27 Sep - 01:51:50 10° NW 02:00:32 38° N 02:09:28 10° ENE visible
27 Sep - 03:57:19 10° NW 04:07:01 71° NNE 04:17:01 10° ESE visible
27 Sep - 06:02:53 10° WNW 06:11:45 40° SW 06:20:51 10° SSE night (unlit)
27 Sep - 19:14:45 10° S 19:21:37 24° SE 19:28:31 10° ENE daylight
27 Sep - 21:16:21 10° SW 21:25:39 87° SE 21:35:09 10° NE daylight
27 Sep - 23:22:45 10° W 23:31:30 42° NNW 23:40:29 10° NE visible
28 Sep - 01:30:05 10° WNW 01:38:44 37° N 01:47:36 10° ENE visible
28 Sep - 03:35:38 10° NW 03:45:17 68° NNE 03:55:14 10° ESE visible
28 Sep - 05:41:06 10° WNW 05:50:05 42° SW 05:59:18 10° SSE visible
28 Sep - 18:53:25 10° S 19:00:01 22° SE 19:06:36 10° E daylight
28 Sep - 20:54:41 10° SW 21:03:59 84° SE 21:13:26 10° NE daylight
28 Sep - 23:00:58 10° W 23:09:44 43° NNW 23:18:44 10° NE daylight
29 Sep - 01:08:21 10° WNW 01:16:56 36° N 01:25:45 10° ENE visible
29 Sep - 03:13:57 10° NW 03:23:33 66° NNE 03:33:26 10° ESE visible
29 Sep - 05:19:21 10° WNW 05:28:25 45° SW 05:37:45 10° SSE visible
29 Sep - 18:32:08 10° SSE 18:38:24 20° SE 18:44:39 10° E daylight
29 Sep - 20:33:02 10° SW 20:42:19 80° SE 20:51:43 10° NE daylight
29 Sep - 22:39:10 10° W 22:47:58 44° NNW 22:56:59 10° NE daylight
30 Sep - 00:46:36 10° WNW 00:55:08 36° N 01:03:54 10° ENE visible
30 Sep - 02:52:16 10° NW 03:01:48 63° NNE 03:11:38 10° ESE visible
30 Sep - 04:57:35 10° WNW 05:06:45 47° SW 05:16:10 10° SSE visible
30 Sep - 18:10:54 10° SSE 18:16:47 19° SE 18:22:41 10° E daylight
30 Sep - 20:11:23 10° SW 20:20:38 76° SE 20:30:01 10° NE daylight
30 Sep - 22:17:23 10° W 22:26:12 45° NNW 22:35:15 10° NE daylight
01 Oct - 00:24:51 10° WNW 00:33:20 36° N 00:42:03 10° ENE visible
01 Oct - 02:30:35 10° NW 02:40:04 61° NNE 02:49:50 10° ESE visible
01 Oct - 04:35:51 10° WNW 04:45:04 50° SW 04:54:34 10° SSE visible
01 Oct - 17:49:42 10° SSE 17:55:11 17° SE 18:00:39 10° E daylight
01 Oct - 19:49:45 10° SW 19:58:59 73° SE 20:08:18 10° NE daylight
01 Oct - 21:55:36 10° W 22:04:27 47° NNW 22:13:30 10° NE daylight
02 Oct - 00:03:05 10° WNW 00:11:32 35° N 00:20:12 10° ENE visible
02 Oct - 02:08:54 10° NW 02:18:19 59° NNE 02:28:02 10° ESE visible
02 Oct - 04:14:07 10° WNW 04:23:24 53° SW 04:32:59 10° SSE visible
02 Oct - 06:26:09 10° WSW 06:27:05 10° WSW 06:28:00 10° SW night (unlit)
02 Oct - 17:28:33 10° SSE 17:33:35 16° ESE 17:38:33 10° E daylight
02 Oct - 19:28:07 10° SW 19:37:18 69° SE 19:46:35 10° ENE daylight
02 Oct - 21:33:48 10° W 21:42:42 48° NNW 21:51:47 10° NE daylight
02 Oct - 23:41:20 10° WNW 23:49:44 35° N 23:58:21 10° ENE visible
03 Oct - 01:47:13 10° NW 01:56:34 56° NNE 02:06:13 10° ESE visible
03 Oct - 03:52:23 10° WNW 04:01:43 56° SW 04:11:21 10° SSE visible
03 Oct - 06:02:43 10° WSW 06:05:27 11° WSW 06:08:12 10° SW night (unlit)
03 Oct - 17:07:30 10° SSE 17:11:58 14° ESE 17:16:24 10° E daylight
03 Oct - 19:06:30 10° SW 19:15:39 65° SE 19:24:51 10° ENE daylight
03 Oct - 21:12:01 10° W 21:20:57 49° NNW 21:30:04 10° NE daylight
03 Oct - 23:19:33 10° WNW 23:27:56 35° N 23:36:32 10° ENE visible
04 Oct - 01:25:32 10° NW 01:34:49 54° NNE 01:44:23 10° ESE visible
04 Oct - 03:30:40 10° WNW 03:40:03 59° SW 03:49:43 10° SSE visible
04 Oct - 05:40:07 10° W 05:43:49 13° WSW 05:47:33 10° SW night (unlit)
04 Oct - 16:46:33 10° SSE 16:50:21 13° ESE 16:54:09 10° E daylight
04 Oct - 18:44:54 10° SW 18:54:00 62° SE 19:03:08 10° ENE daylight
04 Oct - 20:50:14 10° W 20:59:13 51° NNW 21:08:21 10° NE daylight
04 Oct - 22:57:47 10° WNW 23:06:08 35° N 23:14:41 10° ENE daylight
05 Oct - 01:03:51 10° NW 01:13:04 53° NNE 01:22:34 10° E visible
05 Oct - 03:08:57 10° WNW 03:18:22 62° SW 03:28:06 10° SSE visible
05 Oct - 05:17:47 10° W 05:22:11 14° WSW 05:26:39 10° SSW night (unlit)
05 Oct - 16:25:48 10° SE 16:28:45 12° ESE 16:31:41 10° ESE daylight
05 Oct - 18:23:18 10° SSW 18:32:21 59° SE 18:41:25 10° ENE daylight
05 Oct - 20:28:28 10° WSW 20:37:29 53° NNW 20:46:38 10° NE daylight
05 Oct - 22:36:00 10° WNW 22:44:20 35° N 22:52:52 10° ENE daylight
